﻿測定場所 (Monitoring sites),日付 (Measurement date),時間 (Measurement time),線量率 最大値 (max) μGy/h,線量率 最小値 (min) μGy/h,線量率 平均値 (average) μGy/h,
江戸川 (Edogawa),2012-02-19,23:01～24:00,0.133,0.118,0.125,
江戸川 (Edogawa),2012-02-19,22:01～23:00,0.134,0.117,0.125,
江戸川 (Edogawa),2012-02-19,21:01～22:00,0.131,0.117,0.125,
江戸川 (Edogawa),2012-02-19,20:01～21:00,0.130,0.118,0.124,
江戸川 (Edogawa),2012-02-19,19:01～20:00,0.130,0.116,0.124,
江戸川 (Edogawa),2012-02-19,18:01～19:00,0.135,0.116,0.124,
江戸川 (Edogawa),2012-02-19,17:01～18:00,0.129,0.117,0.124,
江戸川 (Edogawa),2012-02-19,16:01～17:00,0.131,0.118,0.124,
江戸川 (Edogawa),2012-02-19,15:01～16:00,0.133,0.120,0.125,
江戸川 (Edogawa),2012-02-19,14:01～15:00,0.132,0.120,0.126,
江戸川 (Edogawa),2012-02-19,13:01～14:00,0.133,0.116,0.124,
江戸川 (Edogawa),2012-02-19,12:01～13:00,0.132,0.120,0.125,
江戸川 (Edogawa),2012-02-19,11:01～12:00,0.131,0.118,0.124,
江戸川 (Edogawa),2012-02-19,10:01～11:00,0.134,0.117,0.124,
江戸川 (Edogawa),2012-02-19,09:01～10:00,0.129,0.116,0.123,
江戸川 (Edogawa),2012-02-19,08:01～09:00,0.130,0.115,0.122,
江戸川 (Edogawa),2012-02-19,07:01～08:00,0.129,0.117,0.122,
江戸川 (Edogawa),2012-02-19,06:01～07:00,0.128,0.116,0.123,
江戸川 (Edogawa),2012-02-19,05:01～06:00,0.131,0.116,0.124,
江戸川 (Edogawa),2012-02-19,04:01～05:00,0.130,0.117,0.123,
江戸川 (Edogawa),2012-02-19,03:01～04:00,0.127,0.116,0.123,
江戸川 (Edogawa),2012-02-19,02:01～03:00,0.129,0.118,0.123,
江戸川 (Edogawa),2012-02-19,01:01～02:00,0.130,0.116,0.123,
江戸川 (Edogawa),2012-02-19,00:01～01:00,0.132,0.118,0.124,
江戸川 (Edogawa),2012-02-18,23:01～24:00,0.129,0.117,0.124,
江戸川 (Edogawa),2012-02-18,22:01～23:00,0.131,0.119,0.124,
江戸川 (Edogawa),2012-02-18,21:01～22:00,0.131,0.116,0.124,
江戸川 (Edogawa),2012-02-18,20:01～21:00,0.130,0.117,0.124,
江戸川 (Edogawa),2012-02-18,19:01～20:00,0.129,0.118,0.124,
江戸川 (Edogawa),2012-02-18,18:01～19:00,0.131,0.117,0.123,
江戸川 (Edogawa),2012-02-18,17:01～18:00,0.129,0.116,0.123,
江戸川 (Edogawa),2012-02-18,16:01～17:00,0.129,0.119,0.124,
江戸川 (Edogawa),2012-02-18,15:01～16:00,0.132,0.117,0.124,
江戸川 (Edogawa),2012-02-18,14:01～15:00,0.132,0.119,0.124,
江戸川 (Edogawa),2012-02-18,13:01～14:00,0.130,0.119,0.124,
江戸川 (Edogawa),2012-02-18,12:01～13:00,0.135,0.118,0.125,
江戸川 (Edogawa),2012-02-18,11:01～12:00,0.130,0.118,0.124,
江戸川 (Edogawa),2012-02-18,10:01～11:00,0.132,0.117,0.124,
江戸川 (Edogawa),2012-02-18,09:01～10:00,0.131,0.117,0.123,
江戸川 (Edogawa),2012-02-18,08:01～09:00,0.129,0.118,0.122,
江戸川 (Edogawa),2012-02-18,07:01～08:00,0.130,0.116,0.122,
江戸川 (Edogawa),2012-02-18,06:01～07:00,0.129,0.115,0.122,
江戸川 (Edogawa),2012-02-18,05:01～06:00,0.130,0.118,0.124,
江戸川 (Edogawa),2012-02-18,04:01～05:00,0.133,0.120,0.127,
江戸川 (Edogawa),2012-02-18,03:01～04:00,0.131,0.117,0.125,
江戸川 (Edogawa),2012-02-18,02:01～03:00,0.130,0.117,0.122,
江戸川 (Edogawa),2012-02-18,01:01～02:00,0.129,0.117,0.123,
江戸川 (Edogawa),2012-02-18,00:01～01:00,0.130,0.117,0.122,
江戸川 (Edogawa),2012-02-17,23:01～24:00,0.129,0.115,0.123,
江戸川 (Edogawa),2012-02-17,22:01～23:00,0.135,0.115,0.125,
江戸川 (Edogawa),2012-02-17,21:01～22:00,0.141,0.123,0.134,
江戸川 (Edogawa),2012-02-17,20:01～21:00,0.149,0.133,0.140,
江戸川 (Edogawa),2012-02-17,19:01～20:00,0.146,0.127,0.137,
江戸川 (Edogawa),2012-02-17,18:01～19:00,0.143,0.127,0.134,
江戸川 (Edogawa),2012-02-17,17:01～18:00,0.137,0.119,0.129,
江戸川 (Edogawa),2012-02-17,16:01～17:00,0.133,0.121,0.126,
江戸川 (Edogawa),2012-02-17,15:01～16:00,0.133,0.121,0.127,
江戸川 (Edogawa),2012-02-17,14:01～15:00,0.133,0.122,0.128,
江戸川 (Edogawa),2012-02-17,13:01～14:00,0.132,0.118,0.127,
江戸川 (Edogawa),2012-02-17,12:01～13:00,0.134,0.120,0.126,
江戸川 (Edogawa),2012-02-17,11:01～12:00,0.134,0.118,0.126,
江戸川 (Edogawa),2012-02-17,10:01～11:00,0.132,0.117,0.125,
江戸川 (Edogawa),2012-02-17,09:01～10:00,0.133,0.119,0.125,
江戸川 (Edogawa),2012-02-17,08:01～09:00,0.135,0.116,0.124,
江戸川 (Edogawa),2012-02-17,07:01～08:00,0.129,0.117,0.122,
江戸川 (Edogawa),2012-02-17,06:01～07:00,0.130,0.119,0.124,
江戸川 (Edogawa),2012-02-17,05:01～06:00,0.134,0.117,0.124,
江戸川 (Edogawa),2012-02-17,04:01～05:00,0.128,0.118,0.124,
江戸川 (Edogawa),2012-02-17,03:01～04:00,0.131,0.117,0.124,
江戸川 (Edogawa),2012-02-17,02:01～03:00,0.131,0.118,0.124,
江戸川 (Edogawa),2012-02-17,01:01～02:00,0.134,0.115,0.125,
江戸川 (Edogawa),2012-02-17,00:01～01:00,0.134,0.119,0.126,
江戸川 (Edogawa),2012-02-16,23:01～24:00,0.136,0.121,0.128,
江戸川 (Edogawa),2012-02-16,22:01～23:00,0.137,0.120,0.128,
江戸川 (Edogawa),2012-02-16,21:01～22:00,0.132,0.119,0.125,
江戸川 (Edogawa),2012-02-16,20:01～21:00,0.133,0.117,0.125,
江戸川 (Edogawa),2012-02-16,19:01～20:00,0.134,0.119,0.126,
江戸川 (Edogawa),2012-02-16,18:01～19:00,0.134,0.119,0.126,
江戸川 (Edogawa),2012-02-16,17:01～18:00,0.134,0.122,0.127,
江戸川 (Edogawa),2012-02-16,16:01～17:00,0.134,0.120,0.128,
江戸川 (Edogawa),2012-02-16,15:01～16:00,0.139,0.123,0.131,
江戸川 (Edogawa),2012-02-16,14:01～15:00,0.135,0.120,0.127,
江戸川 (Edogawa),2012-02-16,13:01～14:00,0.133,0.118,0.127,
江戸川 (Edogawa),2012-02-16,12:01～13:00,0.130,0.119,0.125,
江戸川 (Edogawa),2012-02-16,11:01～12:00,0.133,0.120,0.125,
江戸川 (Edogawa),2012-02-16,10:01～11:00,0.133,0.119,0.125,
江戸川 (Edogawa),2012-02-16,09:01～10:00,0.131,0.119,0.125,
江戸川 (Edogawa),2012-02-16,08:01～09:00,0.134,0.119,0.126,
江戸川 (Edogawa),2012-02-16,07:01～08:00,0.131,0.119,0.125,
江戸川 (Edogawa),2012-02-16,06:01～07:00,0.132,0.119,0.126,
江戸川 (Edogawa),2012-02-16,05:01～06:00,0.142,0.119,0.126,
江戸川 (Edogawa),2012-02-16,04:01～05:00,0.136,0.119,0.125,
江戸川 (Edogawa),2012-02-16,03:01～04:00,0.133,0.119,0.126,
江戸川 (Edogawa),2012-02-16,02:01～03:00,0.133,0.118,0.126,
江戸川 (Edogawa),2012-02-16,01:01～02:00,0.133,0.119,0.126,
江戸川 (Edogawa),2012-02-16,00:01～01:00,0.132,0.116,0.126,
江戸川 (Edogawa),2012-02-15,23:01～24:00,0.132,0.118,0.125,
江戸川 (Edogawa),2012-02-15,22:01～23:00,0.132,0.120,0.125,
江戸川 (Edogawa),2012-02-15,21:01～22:00,0.134,0.122,0.126,
江戸川 (Edogawa),2012-02-15,20:01～21:00,0.132,0.120,0.126,
江戸川 (Edogawa),2012-02-15,19:01～20:00,0.135,0.119,0.126,
江戸川 (Edogawa),2012-02-15,18:01～19:00,0.132,0.120,0.126,
江戸川 (Edogawa),2012-02-15,17:01～18:00,0.134,0.117,0.126,
江戸川 (Edogawa),2012-02-15,16:01～17:00,0.135,0.120,0.127,
江戸川 (Edogawa),2012-02-15,15:01～16:00,0.135,0.119,0.126,
江戸川 (Edogawa),2012-02-15,14:01～15:00,0.132,0.117,0.126,
江戸川 (Edogawa),2012-02-15,13:01～14:00,0.134,0.121,0.127,
江戸川 (Edogawa),2012-02-15,12:01～13:00,0.132,0.121,0.127,
江戸川 (Edogawa),2012-02-15,11:01～12:00,0.133,0.118,0.126,
江戸川 (Edogawa),2012-02-15,10:01～11:00,0.132,0.120,0.126,
江戸川 (Edogawa),2012-02-15,09:01～10:00,0.132,0.121,0.126,
江戸川 (Edogawa),2012-02-15,08:01～09:00,0.133,0.119,0.126,
江戸川 (Edogawa),2012-02-15,07:01～08:00,0.133,0.120,0.126,
江戸川 (Edogawa),2012-02-15,06:01～07:00,0.135,0.118,0.126,
江戸川 (Edogawa),2012-02-15,05:01～06:00,0.133,0.118,0.126,
江戸川 (Edogawa),2012-02-15,04:01～05:00,0.131,0.119,0.125,
江戸川 (Edogawa),2012-02-15,03:01～04:00,0.134,0.119,0.125,
江戸川 (Edogawa),2012-02-15,02:01～03:00,0.131,0.119,0.125,
江戸川 (Edogawa),2012-02-15,01:01～02:00,0.131,0.119,0.125,
江戸川 (Edogawa),2012-02-15,00:01～01:00,0.131,0.119,0.125,
江戸川 (Edogawa),2012-02-14,23:01～24:00,0.132,0.121,0.125,
江戸川 (Edogawa),2012-02-14,22:01～23:00,0.131,0.119,0.125,
江戸川 (Edogawa),2012-02-14,21:01～22:00,0.131,0.120,0.126,
江戸川 (Edogawa),2012-02-14,20:01～21:00,0.135,0.116,0.127,
江戸川 (Edogawa),2012-02-14,19:01～20:00,0.143,0.127,0.134,
江戸川 (Edogawa),2012-02-14,18:01～19:00,0.142,0.127,0.134,
江戸川 (Edogawa),2012-02-14,17:01～18:00,0.149,0.128,0.138,
江戸川 (Edogawa),2012-02-14,16:01～17:00,0.159,0.135,0.146,
江戸川 (Edogawa),2012-02-14,15:01～16:00,0.146,0.132,0.139,
江戸川 (Edogawa),2012-02-14,14:01～15:00,0.149,0.134,0.142,
江戸川 (Edogawa),2012-02-14,13:01～14:00,0.142,0.126,0.135,
江戸川 (Edogawa),2012-02-14,12:01～13:00,0.133,0.119,0.127,
江戸川 (Edogawa),2012-02-14,11:01～12:00,0.135,0.122,0.128,
江戸川 (Edogawa),2012-02-14,10:01～11:00,0.134,0.122,0.127,
江戸川 (Edogawa),2012-02-14,09:01～10:00,0.133,0.123,0.128,
江戸川 (Edogawa),2012-02-14,08:01～09:00,0.134,0.122,0.128,
江戸川 (Edogawa),2012-02-14,07:01～08:00,0.138,0.122,0.129,
江戸川 (Edogawa),2012-02-14,06:01～07:00,0.134,0.120,0.128,
江戸川 (Edogawa),2012-02-14,05:01～06:00,0.135,0.118,0.128,
江戸川 (Edogawa),2012-02-14,04:01～05:00,0.135,0.121,0.127,
江戸川 (Edogawa),2012-02-14,03:01～04:00,0.135,0.120,0.127,
江戸川 (Edogawa),2012-02-14,02:01～03:00,0.133,0.119,0.127,
江戸川 (Edogawa),2012-02-14,01:01～02:00,0.136,0.119,0.126,
江戸川 (Edogawa),2012-02-14,00:01～01:00,0.133,0.121,0.127,
江戸川 (Edogawa),2012-02-13,23:01～24:00,0.134,0.121,0.127,
江戸川 (Edogawa),2012-02-13,22:01～23:00,0.132,0.121,0.128,
江戸川 (Edogawa),2012-02-13,21:01～22:00,0.135,0.122,0.127,
江戸川 (Edogawa),2012-02-13,20:01～21:00,0.135,0.120,0.127,
江戸川 (Edogawa),2012-02-13,19:01～20:00,0.133,0.118,0.128,
江戸川 (Edogawa),2012-02-13,18:01～19:00,0.132,0.120,0.127,
江戸川 (Edogawa),2012-02-13,17:01～18:00,0.133,0.121,0.128,
江戸川 (Edogawa),2012-02-13,16:01～17:00,0.137,0.119,0.127,
江戸川 (Edogawa),2012-02-13,15:01～16:00,0.135,0.122,0.128,
江戸川 (Edogawa),2012-02-13,14:01～15:00,0.136,0.121,0.128,
江戸川 (Edogawa),2012-02-13,13:01～14:00,0.136,0.121,0.128,
江戸川 (Edogawa),2012-02-13,12:01～13:00,0.136,0.121,0.128,
江戸川 (Edogawa),2012-02-13,11:01～12:00,0.134,0.122,0.127,
江戸川 (Edogawa),2012-02-13,10:01～11:00,0.132,0.118,0.126,
江戸川 (Edogawa),2012-02-13,09:01～10:00,0.132,0.121,0.126,
江戸川 (Edogawa),2012-02-13,08:01～09:00,0.131,0.119,0.126,
江戸川 (Edogawa),2012-02-13,07:01～08:00,0.131,0.118,0.125,
江戸川 (Edogawa),2012-02-13,06:01～07:00,0.137,0.121,0.126,
江戸川 (Edogawa),2012-02-13,05:01～06:00,0.132,0.121,0.126,
江戸川 (Edogawa),2012-02-13,04:01～05:00,0.135,0.118,0.125,
江戸川 (Edogawa),2012-02-13,03:01～04:00,0.131,0.119,0.126,
江戸川 (Edogawa),2012-02-13,02:01～03:00,0.134,0.120,0.126,
江戸川 (Edogawa),2012-02-13,01:01～02:00,0.137,0.117,0.126,
江戸川 (Edogawa),2012-02-13,00:01～01:00,0.133,0.117,0.125,
